TimePDT,TemperatureF,Dew PointF,Humidity,Sea Level PressureIn,VisibilityMPH,Wind Direction,Wind SpeedMPH,Gust SpeedMPH,PrecipitationIn,Events,Conditions,WindDirDegrees,DateUTC
12:53 AM,39.9,39.0,97,30.22,9.0,Calm,Calm,-,N/A,,Clear,0,2013-04-16 07:53:00
1:53 AM,37.9,37.0,97,30.24,9.0,Calm,Calm,-,N/A,,Clear,0,2013-04-16 08:53:00
2:53 AM,37.0,37.0,100,30.24,10.0,SSE,4.6,-,N/A,,Scattered Clouds,160,2013-04-16 09:53:00
3:53 AM,37.9,37.0,97,30.26,10.0,SE,3.5,-,N/A,,Overcast,140,2013-04-16 10:53:00
4:53 AM,37.4,35.6,93,30.26,10.0,Calm,Calm,-,N/A,,Overcast,0,2013-04-16 11:53:00
5:53 AM,37.0,35.1,93,30.29,10.0,Calm,Calm,-,N/A,,Partly Cloudy,0,2013-04-16 12:53:00
6:11 AM,37.4,35.6,93,30.28,10.0,Calm,Calm,-,N/A,,Mostly Cloudy,0,2013-04-16 13:11:00
6:53 AM,37.0,35.1,93,30.31,10.0,Calm,Calm,-,N/A,,Mostly Cloudy,0,2013-04-16 13:53:00
7:53 AM,37.9,36.0,93,30.33,10.0,Calm,Calm,-,N/A,,Overcast,0,2013-04-16 14:53:00
8:53 AM,41.0,37.0,86,30.34,10.0,SSE,3.5,-,N/A,,Overcast,150,2013-04-16 15:53:00
9:53 AM,45.0,39.9,82,30.35,10.0,Calm,Calm,-,N/A,,Overcast,0,2013-04-16 16:53:00
10:53 AM,45.0,39.0,80,30.35,10.0,Calm,Calm,-,N/A,,Overcast,0,2013-04-16 17:53:00
11:32 AM,46.4,39.2,76,30.33,10.0,NW,4.6,-,N/A,,Scattered Clouds,320,2013-04-16 18:32:00
11:53 AM,48.0,39.9,74,30.35,10.0,NW,4.6,-,N/A,,Clear,320,2013-04-16 18:53:00
12:53 PM,51.1,39.9,66,30.35,10.0,NW,5.8,-,N/A,,Clear,320,2013-04-16 19:53:00
1:53 PM,53.1,39.0,59,30.34,10.0,North,4.6,-,N/A,,Clear,350,2013-04-16 20:53:00
2:53 PM,53.1,35.1,50,30.34,10.0,NNW,6.9,-,N/A,,Overcast,330,2013-04-16 21:53:00
3:53 PM,48.9,37.9,66,30.37,10.0,NNW,15.0,19.6,0.00,,Overcast,330,2013-04-16 22:53:00
4:53 PM,52.0,37.0,57,30.35,10.0,NNW,3.5,-,0.00,,Scattered Clouds,330,2013-04-16 23:53:00
5:53 PM,52.0,36.0,54,30.35,10.0,NW,6.9,-,N/A,,Clear,320,2013-04-17 00:53:00
6:53 PM,53.1,36.0,52,30.35,10.0,NW,4.6,-,N/A,,Clear,320,2013-04-17 01:53:00
7:53 PM,51.1,36.0,56,30.36,10.0,Calm,Calm,-,N/A,,Clear,0,2013-04-17 02:53:00
8:53 PM,48.0,36.0,63,30.39,10.0,Calm,Calm,-,N/A,,Clear,0,2013-04-17 03:53:00
9:53 PM,46.0,37.0,71,30.41,10.0,Calm,Calm,-,N/A,,Clear,0,2013-04-17 04:53:00
10:53 PM,45.0,37.0,74,30.42,10.0,Calm,Calm,-,N/A,,Clear,0,2013-04-17 05:53:00
11:53 PM,42.1,37.9,85,30.42,10.0,Calm,Calm,-,N/A,,Clear,0,2013-04-17 06:53:00